VLG85GB LEBL-LIBD

Flight info

Callsign VLG85GB
Flight time N/A
Altitude 37000
Route DIPES N725 OSPOK DCT NOLVI DCT ORKUM/N0432F360 DCT ELSAG DCT ALG DCT ARSIK DCT MOROB DCT ORVEX DCT KOLUS DCT IDEPA DCT SUKUN DCT ATNET DCT ROXAN DCT TURMO DCT ROTUN DCT PNZ DCT DOGUS
Aircraft A320/M-SDE3FGHIRWY/LB1

Departure

Time 2026-04-30 08:46
Airport Josep Tarradellas Barcelona-El Prat Airport (LEBL)

Arrival

Time N/A
Airport Bari Karol Wojtyła International Airport (LIBD)
Time Latitude Longitude Altitude Speed Heading
2026-04-30 08:25 41.29173 2.08013 19 ft 0 kts 155°
2026-04-30 08:37 41.29180 2.08009 20 ft 4 kts 155°
2026-04-30 08:37 41.29204 2.07995 19 ft 4 kts 153°
2026-04-30 08:38 41.29227 2.07975 20 ft 4 kts 131°
2026-04-30 08:38 41.29238 2.07947 22 ft 4 kts 83°
2026-04-30 08:38 41.29235 2.07931 22 ft 1 kts 65°
2026-04-30 08:38 41.29234 2.07930 22 ft 0 kts 65°
2026-04-30 08:40 41.29243 2.07956 20 ft 9 kts 65°
2026-04-30 08:41 41.29274 2.08045 19 ft 11 kts 65°
2026-04-30 08:41 41.29309 2.08147 21 ft 13 kts 65°
2026-04-30 08:41 41.29347 2.08259 19 ft 14 kts 65°
2026-04-30 08:41 41.29364 2.08370 19 ft 12 kts 122°
2026-04-30 08:42 41.29283 2.08430 20 ft 17 kts 155°
2026-04-30 08:42 41.29166 2.08431 20 ft 18 kts 198°
2026-04-30 08:42 41.29052 2.08378 20 ft 17 kts 199°
2026-04-30 08:42 41.28945 2.08329 18 ft 15 kts 199°
2026-04-30 08:43 41.28848 2.08285 17 ft 14 kts 199°
2026-04-30 08:43 41.28756 2.08244 16 ft 13 kts 199°
2026-04-30 08:43 41.28680 2.08196 16 ft 11 kts 228°
2026-04-30 08:43 41.28634 2.08063 17 ft 24 kts 245°
2026-04-30 08:44 41.28565 2.07863 18 ft 23 kts 245°
2026-04-30 08:44 41.28502 2.07680 17 ft 21 kts 245°
2026-04-30 08:44 41.28451 2.07528 18 ft 12 kts 246°
2026-04-30 08:44 41.28404 2.07455 16 ft 10 kts 195°
2026-04-30 08:45 41.28308 2.07415 16 ft 18 kts 201°
2026-04-30 08:45 41.28236 2.07456 18 ft 12 kts 83°
2026-04-30 08:45 41.28308 2.07662 19 ft 54 kts 65°
2026-04-30 08:45 41.28558 2.08393 21 ft 116 kts 65°
2026-04-30 08:46 41.28961 2.09553 187 ft 146 kts 66°
2026-04-30 08:46 41.29290 2.10813 824 ft 147 kts 83°
2026-04-30 08:46 41.29218 2.12203 1275 ft 160 kts 94°
2026-04-30 08:46 41.29082 2.13793 1521 ft 185 kts 94°
2026-04-30 08:47 41.28938 2.15578 1935 ft 199 kts 94°
2026-04-30 08:47 41.28773 2.17433 2593 ft 203 kts 95°
2026-04-30 08:47 41.28596 2.19313 3305 ft 206 kts 95°
2026-04-30 08:47 41.28420 2.21213 4041 ft 208 kts 97°
2026-04-30 08:48 41.28244 2.23127 4748 ft 210 kts 97°
2026-04-30 08:48 41.28071 2.25052 5380 ft 214 kts 98°
2026-04-30 08:48 41.27894 2.27051 5887 ft 220 kts 98°
2026-04-30 08:48 41.27714 2.29086 6396 ft 226 kts 99°
2026-04-30 08:49 41.27524 2.31231 6850 ft 239 kts 100°
2026-04-30 08:49 41.27306 2.33446 7470 ft 244 kts 99°
2026-04-30 08:49 41.27067 2.35707 8129 ft 249 kts 101°
2026-04-30 08:49 41.26746 2.37991 8807 ft 254 kts 105°
2026-04-30 08:50 41.26352 2.40327 9284 ft 269 kts 105°
2026-04-30 08:50 41.25900 2.42847 9626 ft 289 kts 105°
2026-04-30 08:50 41.25427 2.45482 10208 ft 299 kts 106°
2026-04-30 08:50 41.24929 2.48277 10419 ft 322 kts 105°
2026-04-30 08:51 41.24401 2.51274 10715 ft 340 kts 105°
2026-04-30 08:51 41.23865 2.54371 11318 ft 347 kts 105°
2026-04-30 08:51 41.23327 2.57513 12012 ft 351 kts 105°
2026-04-30 08:51 41.22785 2.60688 12718 ft 354 kts 105°
2026-04-30 08:52 41.22236 2.63889 13399 ft 358 kts 105°
2026-04-30 08:52 41.21678 2.67127 14068 ft 361 kts 105°
2026-04-30 08:52 41.21116 2.70395 14637 ft 365 kts 105°
2026-04-30 08:52 41.20545 2.73699 15208 ft 369 kts 105°
2026-04-30 08:53 41.19965 2.77042 15760 ft 374 kts 105°
2026-04-30 08:53 41.19376 2.80422 16320 ft 378 kts 105°
2026-04-30 08:53 41.18777 2.83843 16859 ft 382 kts 105°
2026-04-30 08:53 41.18176 2.87254 17406 ft 387 kts 105°
2026-04-30 08:54 41.17562 2.90748 17946 ft 391 kts 105°
2026-04-30 08:54 41.16942 2.94280 18473 ft 395 kts 105°
2026-04-30 08:54 41.16315 2.97852 18939 ft 399 kts 105°
2026-04-30 08:54 41.15680 3.01460 19416 ft 403 kts 105°
2026-04-30 08:55 41.15038 3.05098 19897 ft 407 kts 105°
2026-04-30 08:55 41.14389 3.08763 20419 ft 409 kts 105°
2026-04-30 08:55 41.13734 3.12452 20897 ft 413 kts 105°
2026-04-30 08:55 41.13072 3.16178 21367 ft 417 kts 106°
2026-04-30 08:56 41.12404 3.19931 21840 ft 420 kts 106°
2026-04-30 08:56 41.11730 3.23720 22299 ft 424 kts 106°
2026-04-30 08:56 41.11050 3.27547 22753 ft 428 kts 106°
2026-04-30 08:56 41.10362 3.31402 23191 ft 432 kts 106°
2026-04-30 08:57 41.09665 3.35290 23628 ft 435 kts 106°
2026-04-30 08:57 41.08965 3.39205 24002 ft 439 kts 106°
2026-04-30 08:57 41.08259 3.43154 24351 ft 442 kts 106°
2026-04-30 08:57 41.07543 3.47127 24674 ft 445 kts 106°
2026-04-30 08:58 41.06819 3.51129 25008 ft 448 kts 106°
2026-04-30 08:58 41.06086 3.55158 25338 ft 451 kts 106°
2026-04-30 08:58 41.05353 3.59211 25666 ft 454 kts 106°
2026-04-30 08:58 41.04623 3.63293 25992 ft 457 kts 106°
2026-04-30 08:59 41.03904 3.67348 26300 ft 460 kts 106°
2026-04-30 08:59 41.03172 3.71484 26612 ft 463 kts 106°
2026-04-30 08:59 41.02432 3.75641 26920 ft 465 kts 106°
2026-04-30 08:59 41.01685 3.79822 27224 ft 468 kts 106°
2026-04-30 09:00 41.00931 3.84019 27543 ft 470 kts 106°
2026-04-30 09:00 41.00169 3.88237 27856 ft 472 kts 106°
2026-04-30 09:00 40.99398 3.92477 28155 ft 475 kts 106°
2026-04-30 09:00 40.98623 3.96732 28442 ft 477 kts 106°
2026-04-30 09:01 40.97842 4.01013 28723 ft 480 kts 106°
2026-04-30 09:01 40.97058 4.05317 28998 ft 482 kts 106°
2026-04-30 09:01 40.96268 4.09641 29269 ft 485 kts 106°
2026-04-30 09:01 40.95472 4.13985 29534 ft 487 kts 106°
2026-04-30 09:02 40.93868 4.22726 30048 ft 491 kts 105°
2026-04-30 09:02 40.93059 4.27123 30285 ft 493 kts 105°
2026-04-30 09:02 40.92246 4.31529 30487 ft 495 kts 105°
2026-04-30 09:03 40.91430 4.35957 30695 ft 496 kts 105°
2026-04-30 09:03 40.90608 4.40391 30893 ft 498 kts 106°
2026-04-30 09:03 40.89776 4.44846 31107 ft 499 kts 106°
2026-04-30 09:03 40.88943 4.49293 31386 ft 499 kts 106°
2026-04-30 09:04 40.88109 4.53740 31605 ft 499 kts 106°
2026-04-30 09:04 40.87275 4.58190 31894 ft 498 kts 106°
2026-04-30 09:04 40.86447 4.62627 32171 ft 498 kts 105°
2026-04-30 09:04 40.85681 4.67085 32437 ft 499 kts 101°
2026-04-30 09:05 40.85233 4.71631 32683 ft 499 kts 98°
2026-04-30 09:05 40.84819 4.76182 32951 ft 499 kts 98°
2026-04-30 09:05 40.84402 4.80731 33215 ft 499 kts 98°
2026-04-30 09:05 40.83981 4.85281 33478 ft 499 kts 98°
2026-04-30 09:06 40.83558 4.89821 33740 ft 499 kts 98°
2026-04-30 09:06 40.83132 4.94371 33994 ft 499 kts 98°
2026-04-30 09:06 40.82706 4.98916 34227 ft 499 kts 98°
2026-04-30 09:06 40.82281 5.03457 34453 ft 499 kts 98°
2026-04-30 09:07 40.81851 5.08002 34673 ft 498 kts 98°
2026-04-30 09:07 40.81423 5.12479 34885 ft 498 kts 98°
2026-04-30 09:07 40.80985 5.17012 35084 ft 498 kts 98°
2026-04-30 09:07 40.80548 5.21549 35292 ft 498 kts 98°
2026-04-30 09:08 40.80110 5.26082 35484 ft 498 kts 98°
2026-04-30 09:08 40.79668 5.30613 35667 ft 498 kts 98°
2026-04-30 09:08 40.79226 5.35145 35852 ft 498 kts 98°
2026-04-30 09:08 40.78782 5.39673 36031 ft 498 kts 98°
2026-04-30 09:09 40.78336 5.44202 36203 ft 497 kts 98°
2026-04-30 09:09 40.77891 5.48726 36378 ft 497 kts 98°
2026-04-30 09:09 40.77446 5.53247 36542 ft 497 kts 98°
2026-04-30 09:09 40.77149 5.56240 36647 ft 497 kts 98°
2026-04-30 09:10 40.76700 5.60757 36800 ft 497 kts 98°
2026-04-30 09:10 40.76253 5.65272 36969 ft 496 kts 98°
2026-04-30 09:10 40.75803 5.69784 37077 ft 496 kts 98°
2026-04-30 09:10 40.75342 5.74363 37084 ft 498 kts 97°
2026-04-30 09:11 40.74420 5.83411 37080 ft 504 kts 98°
2026-04-30 09:11 40.73467 5.92613 37077 ft 509 kts 98°
2026-04-30 09:12 40.72512 6.01895 37080 ft 512 kts 98°
2026-04-30 09:12 40.71549 6.11224 37079 ft 515 kts 97°
2026-04-30 09:13 40.70571 6.20589 37082 ft 517 kts 98°
2026-04-30 09:13 40.69585 6.29973 37080 ft 517 kts 98°
2026-04-30 09:14 40.68580 6.39356 37088 ft 517 kts 98°
2026-04-30 09:14 40.67560 6.48746 37102 ft 518 kts 97°
2026-04-30 09:15 40.66543 6.58139 37106 ft 518 kts 97°
2026-04-30 09:15 40.65525 6.67541 37104 ft 518 kts 97°
2026-04-30 09:16 40.64505 6.76876 37102 ft 518 kts 98°
2026-04-30 09:16 40.63465 6.86267 37101 ft 518 kts 97°
2026-04-30 09:17 40.62761 6.92546 37104 ft 518 kts 97°